YZ-1 R/B, 41929

Orbit data source: Space-Track

YZ-1 R/B, 41929 is space debris in HEO originally from a launch on Mon, 30 Mar 2015 UTC launched from the Xichang Space Center, China (XSC). Debris objects in space refer to the collection of defunct objects orbiting the Earth. Examples of debris include non-operational satellites, rocket bodies, and fragments generated from explosions, collisions, or faulty payload assembly.

Loading next visibility...
Identifier
41929, 2015-019C
Orbit
HEO
Last TLE update
in 22 hours
Origin
Manufacturer
CALT
Mission
Spacecraft
Bus & Motor
YZ-1, Unknown motor
Mass
2,075 kg wet, 2,075 kg dry
Launch date (UTC)
2015-03-30 (10 years ago)
Launch vehicle
Unknown
Launch site
Xichang Space Center, China (XSC)
Object type
Payload
Rocket body
Debris
Shape & HBR
Double Cone, 4 m
Radar Cross Section
5.890 m², Large (>1 m²)

Expand to show TLE details & history

TLE from in 22 hours
0 YZ-1 R/B
1 41929U 15019C   25130.79076799 -.00000739  00000-0  00000-0 0  9996
2 41929  10.5821 161.2646 6330663 240.5166   0.5185  0.27916816  9650
Epoch: 2025-05-10T18:58Z
Definitive object data (Epoch: 2025-05-10T18:58:42.354Z)
Latitude
-9.1974°
Longitude
-111.4647°
Altitude
29,074.977 km
Speed
4.296 km/s
True Right ascension
02h 48m 09s
True Declination
-9° 11' 11"
Sunlit
Object was in daylight at TLE epoch
Visualization TLE readout
Latitude
10.63621°
Longitude
97.66474°
Altitude
125,733.428 km
Speed
1.416 km/s
Apparent Right ascension
16h 46m 25s
Apparent Declination
8° 34' 36"
Sunlit
Object is in daylight
Visualization observer readout
Local Sidereal Time
05:32:55
Azimuth
15.153° NNE
Elevation
-40.327°
Doppler factor
1
Orbital elements
Apogee altitude
155,119.438 km
Perigee altitude
29,908.756 km
Semi-major axis
98,892.234 km
Eccentricity
0.6330663
Inclination
10.5821°
RAAN
161.2646°
Arg. of periapsis
240.5166°
True anomaly
2.98001°
Mean anomaly
0.5185°
Eccentric anomaly
1.41281°
Mean motion
0.06979 °/min
BSTAR
Unknown
Orbital period
5158.25 mins
Loading maneuver chart data...
Loading SW <> Apogee altitude chart data...
Loading historical data...
Loading historical data...
Loading historical data...
Loading historical data...
Loading historical data...
Loading historical data...
Loading historical data...
Other satellites on launch #19 in the year 2015 (2015-03-30 UTC)

YZ-1 R/B Visibility forecast

Observer location: undefined°, undefined°

Span
Click to sort rows by Start time (UTC) header in descending order
Start Az.
Max El. time (UTC)
Max El. Az.
Max El.
End time (UTC)
End Az.
1033 mins2025-05-10 04:08:38.267Z87.762° E2025-05-10 11:03:38.267Z172.882° S39.387°2025-05-10 21:21:38.267Z165.476° S
|